Other Surface Observations
Issued by NWS

Home | Current Version | Previous Version | Text Only | Print | Product List | Glossary On
Versions: 1 2 3 4 5 6 7 8 9 10 11 12 13 14 15 16 17 18 19 20 21 22 23 24 25 26 27 28 29 30 31 32 33 34 35 36 37 38 39 40 41 42 43 44 45 46 47 48 49 50
000
SXUS52 KTAE 180218
OSOTAE
OSOTAE
North Florida/South Alabama/Southwest Georgia Weather Roundup
National Weather Service Tallahassee Florida
900 PM EST WED DEC 17 2014

Note: "fair" indicates few or no clouds below 12,000 feet with no
significant weather and/or obstructions to visibility.

!FLZ017-115-028-034-025-180300
...North Florida...

CITY           SKY/WX    TMP DP  RH WIND       PRES   REMARKS
TALLAHASSEE    PTCLDY    46  39  76 CALM      30.18R
APALACHICOLA   PTCLDY    48  43  82 CALM      30.19R
PERRY          PTCLDY    46  45  95 CALM      30.18F
CROSS CITY       N/A     47  43  86 CALM      30.17S
JACKSONVILLE   MOCLDY    48  46  93 W3        30.16S
$$

!FLZ112-006-005-002-011-180300
...Florida Panhandle...

CITY           SKY/WX    TMP DP  RH WIND       PRES   REMARKS
MARIANNA       CLEAR     47  45  93 CALM      30.18S
BONIFAY        FAIR      43  41  93 CALM      30.20S
PANAMA CITY NW FAIR      44  41  89 CALM      30.18S
TYNDALL AFB    PTCLDY    49  43  80 N3        30.20R
TYND DRONE APT NOT AVBL
DE FUNIAK SPR  FAIR      46  42  87 NW3       30.19S
EGLIN AFB      PTCLDY    45  40  81 NW2       30.19S
DESTIN         CLEAR     50  43  77 CALM      30.20S
HURLBURT       CLEAR     44  38  77 CALM      30.19S
CRESTVIEW      CLEAR     39  37  92 CALM      30.21S FOG
PENSACOLA      CLEAR     47  40  76 N3        30.19S
$$

!ALZ063-066-180300
...South Alabama...

CITY           SKY/WX    TMP DP  RH WIND       PRES   REMARKS
DOTHAN         CLEAR     47  41  80 NW5       30.21S WCI  45
OZARK CAIRNS   CLEAR     49  41  73 NW6       30.18F
FT RUCKER HELI CLEAR     51  40  65 N5        30.18S
RUCKER HELI 3  FAIR      46  41  85 NW3       30.20F
RUCKER HELI 2  FAIR      45  41  86 NW5       30.18S WCI  43
FLORALA APT    CLEAR     42  38  85 CALM      30.20F
ANDALUSIA      CLEAR     49  39  68 CALM      30.19F
TROY           PTCLDY    46  38  73 N8        30.20S WCI  42
EUFALA         FAIR      50  39  66 VRB6      30.18R
MOBILE         PTCLDY    42  41  96 CALM      30.20F
$$

!GAZ120>161-180300
...Southwest and South Central Georgia...

CITY           SKY/WX    TMP DP  RH WIND       PRES   REMARKS
THOMASVILLE    FAIR      45  45 100 CALM      30.18R
BAINBRIDGE     CLEAR     46  45  93 CALM      30.18S
MOODY AFB      CLEAR     45  41  86 SW2       30.16S
VALDOSTA       CLEAR     43  41  93 CALM      30.17S
MOULTRIE       CLEAR     45  45 100 CALM      30.17S
BLAKELY        CLEAR     43  43 100 CALM      30.18S
ALBANY         CLEAR     44  41  89 CALM      30.19R
TIFTON         FAIR      45  40  83 CALM      30.16R
FITZGERALD     FAIR      47  43  85 CALM      30.17S
CORDELE        FAIR      45  40  83 CALM      30.17S
AMERICUS       FAIR      48  41  76 NW3       30.18S
HOMERVILLE     FAIR      45  45 100 CALM      30.16S
$$

!GMZ750-755-770-775-180300
...Coastal and Buoy Obs...

STATION/POSITION TIME  TEMP    WIND        PRES    VSBY  WAVE
                       AIR SEA DIR/SP/G                  HT/PER
                 (UTC) (F)     (DEG/KT/KT) (MB)    (MI)  (FT/S)
KEATON BEACH     0200   57     290/  7/  9 1022.2F
CEDAR KEY        0200   57     330/  5/  7 1022.3R
C TOWER          0200   57     330/ 11/ 12 1022.0R
APALACHICOLA BUO 0200   64 71  310/ 12/ 14 1022.1S         2/ 5
PANAMA CITY BUOY 0057   63 76  350/  6/ 12 1022.6          2/ 4
MOBILE BUOY      0200   60 74   30/  6/ 10 1022.4R         1/ 4
ORANGE BCH AL BU 0200   58 65  360/ 10/ 12 1022.1R         1/ 3
$$



USA.gov is the U.S. government's official web portal to all federal, state and local government web resources and services.